Location: Unspecified
(64.9000°N, 0.0000°E)
Time: 00:57:06
(UTC+00:00)

Transit 4A - All Passes

Search period start: 18 June 2019 00:00
Search period end: 28 June 2019 00:00
Orbit: 862 x 983 km, 66.8° (Epoch: 17 June)

Date Brightness Start Highest point End Pass type
(mag) Time Alt. Az. Time Alt. Az. Time Alt. Az.
18 Jun - 08:31:17 10° SSE 08:35:53 21° ESE 08:40:32 10° ENE daylight
18 Jun - 10:14:58 10° SSW 10:21:08 53° SE 10:27:22 10° ENE daylight
18 Jun - 12:00:56 10° WSW 12:07:23 87° NNW 12:13:52 10° ENE daylight
18 Jun - 13:47:40 10° W 13:54:10 76° N 14:00:36 10° E daylight
18 Jun - 15:34:20 10° WNW 15:40:49 80° SSW 15:47:12 10° SE daylight
18 Jun - 17:20:50 10° WNW 17:26:43 39° SW 17:32:31 10° SSE daylight
18 Jun - 19:08:26 10° WNW 19:11:32 14° WSW 19:14:37 10° SW daylight
19 Jun - 08:39:46 10° S 08:44:55 26° ESE 08:50:06 10° ENE daylight
19 Jun - 10:24:07 10° SW 10:30:23 62° SE 10:36:45 10° ENE daylight
19 Jun - 12:10:20 10° WSW 12:16:48 82° NNW 12:23:17 10° ENE daylight
19 Jun - 13:57:07 10° WNW 14:03:37 78° N 14:10:03 10° E daylight
19 Jun - 15:43:43 10° WNW 15:50:09 71° SW 15:56:29 10° SE daylight
19 Jun - 17:30:17 10° WNW 17:35:51 32° WSW 17:41:20 10° S daylight
19 Jun - 19:19:19 10° W 19:20:23 10° W 19:21:28 10° WSW daylight
20 Jun - 07:08:04 10° ESE 07:09:25 11° E 07:10:47 10° E daylight
20 Jun - 08:48:27 10° S 08:53:59 32° ESE 08:59:36 10° ENE daylight
20 Jun - 10:33:20 10° SW 10:39:42 71° SE 10:46:08 10° ENE daylight
20 Jun - 12:19:47 10° W 12:26:15 78° N 12:32:43 10° ENE daylight
20 Jun - 14:06:34 10° WNW 14:13:03 82° NNE 14:19:29 10° ESE daylight
20 Jun - 15:53:07 10° WNW 15:59:27 61° SW 16:05:42 10° SE daylight
20 Jun - 17:39:46 10° WNW 17:44:56 26° WSW 17:50:00 10° S daylight
21 Jun - 07:15:06 10° SE 07:18:17 14° ESE 07:21:29 10° ENE daylight
21 Jun - 08:57:16 10° SSW 09:03:07 39° SE 09:09:02 10° ENE daylight
21 Jun - 10:42:37 10° SW 10:49:03 81° SSE 10:55:31 10° ENE daylight
21 Jun - 12:29:14 10° W 12:35:42 76° N 12:42:10 10° E daylight
21 Jun - 14:15:59 10° WNW 14:22:29 87° NNE 14:28:54 10° ESE daylight
21 Jun - 16:02:29 10° WNW 16:08:43 52° SW 16:14:50 10° SSE daylight
21 Jun - 17:49:21 10° WNW 17:53:56 21° WSW 17:58:28 10° SSW daylight
22 Jun - 07:23:03 10° SSE 07:27:13 18° ESE 07:31:24 10° ENE daylight
22 Jun - 09:06:14 10° SSW 09:12:18 47° SE 09:18:26 10° ENE daylight
22 Jun - 10:51:58 10° WSW 10:58:26 88° SSE 11:04:55 10° ENE daylight
22 Jun - 12:38:42 10° W 12:45:10 75° N 12:51:37 10° E daylight
22 Jun - 14:25:23 10° WNW 14:31:53 85° SSW 14:38:17 10° ESE daylight
22 Jun - 16:11:53 10° WNW 16:17:55 44° SW 16:23:51 10° SSE daylight
22 Jun - 17:59:06 10° WNW 18:02:53 17° WSW 18:06:39 10° SW daylight
23 Jun - 07:31:22 10° SSE 07:36:12 23° ESE 07:41:03 10° ENE daylight
23 Jun - 09:15:18 10° SSW 09:21:32 56° SE 09:27:49 10° ENE daylight
23 Jun - 11:01:22 10° WSW 11:07:50 85° NNW 11:14:19 10° ENE daylight
23 Jun - 12:48:09 10° W 12:54:37 76° N 13:01:04 10° E daylight
23 Jun - 14:34:47 10° WNW 14:41:15 77° SSW 14:47:36 10° SE daylight
23 Jun - 16:21:18 10° WNW 16:27:05 36° SW 16:32:46 10° S daylight
23 Jun - 18:09:13 10° WNW 18:11:47 13° W 18:14:20 10° SW daylight
24 Jun - 07:39:55 10° S 07:45:14 29° ESE 07:50:35 10° ENE daylight
24 Jun - 09:24:28 10° SW 09:30:48 65° SE 09:37:11 10° ENE daylight
24 Jun - 11:10:48 10° WSW 11:17:16 80° NNW 11:23:44 10° ENE daylight
24 Jun - 12:57:35 10° WNW 13:04:05 79° NNE 13:10:31 10° E daylight
24 Jun - 14:44:11 10° WNW 14:50:34 68° SW 14:56:52 10° SE daylight
24 Jun - 16:30:45 10° WNW 16:36:11 30° WSW 16:41:32 10° S daylight
25 Jun - 06:07:25 10° ESE 06:09:40 12° E 06:11:55 10° ENE daylight
25 Jun - 07:48:40 10° S 07:54:19 35° ESE 08:00:04 10° ENE daylight
25 Jun - 09:33:43 10° SW 09:40:08 75° SSE 09:46:34 10° ENE daylight
25 Jun - 11:20:15 10° W 11:26:43 77° N 11:33:10 10° E daylight
25 Jun - 13:07:02 10° WNW 13:13:31 84° NNE 13:19:56 10° ESE daylight
25 Jun - 14:53:33 10° WNW 14:59:51 58° SW 15:06:03 10° SE daylight
25 Jun - 16:40:17 10° WNW 16:45:14 24° WSW 16:50:07 10° SSW daylight
26 Jun - 06:14:57 10° SE 06:18:33 16° ESE 06:22:10 10° ENE daylight
26 Jun - 07:57:32 10° SSW 08:03:28 42° SE 08:09:29 10° ENE daylight
26 Jun - 09:43:03 10° WSW 09:49:29 84° SSE 09:55:57 10° ENE daylight
26 Jun - 11:29:42 10° W 11:36:11 75° N 11:42:37 10° E daylight
26 Jun - 13:16:27 10° WNW 13:22:56 90° NNW 13:29:20 10° ESE daylight
26 Jun - 15:02:57 10° WNW 15:09:06 49° SW 15:15:09 10° SSE daylight
26 Jun - 16:49:55 10° WNW 16:54:13 19° WSW 16:58:29 10° SSW daylight
27 Jun - 06:23:04 10° SSE 06:27:30 20° ESE 06:31:58 10° ENE daylight
27 Jun - 08:06:33 10° SSW 08:12:41 50° SE 08:18:52 10° ENE daylight
27 Jun - 09:52:25 10° WSW 09:58:53 89° NNW 10:05:21 10° ENE daylight
27 Jun - 11:39:10 10° W 11:45:39 76° N 11:52:04 10° E daylight
27 Jun - 13:25:51 10° WNW 13:32:19 82° SSW 13:38:42 10° ESE daylight
27 Jun - 15:12:20 10° WNW 15:18:17 41° SW 15:24:08 10° SSE daylight
27 Jun - 16:59:46 10° WNW 17:03:10 15° WSW 17:06:31 10° SW daylight
